Home > Weather > Rajshahi > Past weeks

Flag for Bangladesh Weather for the Past 2 Weeks in Rajshahi, Bangladesh

Now
82 °F

Haze.


Feels Like: 89 °F
Forecast: 83 / 94 °F
Wind: 9 mph from East

Location: Calcutta / Dum Dum

Current Time: May 2, 2016 at 3:22:10 AM

Latest Report: May 2, 2016 at 3:00 AM


Visibility: 2 mi

Pressure: 29.59 "Hg

Humidity: 79%

Dew Point: 75 °F

Location of RajshahiLocation

Historic Weather in Rajshahi — Graph

°F

Rajshahi Temperature Yesterday

Maximum temperature yesterday: 106 °F (at 2:00 PM)
Minimum temperature yesterday: 84 °F (at 6:00 AM)
Average temperature yesterday: 91 °F

High & Low Weather Summary for the Past Weeks

 TemperatureHumidityPressure
High108 °F (Apr 24, 3:30 PM)89% (Apr 17, 3:00 AM)29.80 "Hg (Apr 17, 3:00 AM)
Low82 °F (Apr 17, 3:00 AM)18% (Apr 24, 3:30 PM)29.42 "Hg (Apr 23, 5:00 PM)
Average91 °F68%29.63 "Hg
* Reported Apr 17 2:00 AM — May 2 2:00 AM, Rajshahi, Weather by CustomWeather, © 2016

Note: Actual official high and low records may vary slightly from our data, if they occured in-between our weather recording intervals... More about our weather records

Advertising

Rajshahi Weather History for the Previous 24 Hours

Scroll right to see more
 ConditionsComfort  
Time TempWeatherWind HumidityBarometerVisibility
2:00 AM
Mon, May 2
82 °FHaze.8 mph79%29.59 "Hg2 mi
1:30 AM84 °FHaze.9 mph74%29.59 "Hg2 mi
1:00 AM84 °FHaze.8 mph74%29.59 "Hg2 mi
12:30 AM84 °FHaze.7 mph74%29.62 "Hg2 mi
12:00 AM84 °FHaze.5 mph70%29.62 "Hg2 mi
11:30 PM
Sun, May 1
84 °FHaze.5 mph66%29.62 "Hg2 mi
11:00 PM84 °FHaze.5 mph62%29.65 "Hg2 mi
10:30 PM84 °FHaze.7 mph62%29.65 "Hg2 mi
10:00 PM84 °FHaze.7 mph62%29.65 "Hg2 mi
9:30 PM84 °FHaze.7 mph62%29.62 "Hg2 mi
9:00 PM84 °FHaze.9 mph62%29.59 "Hg2 mi
8:30 PM84 °FHaze.9 mph62%29.59 "Hg2 mi
8:00 PM84 °FHaze.9 mph58%29.59 "Hg2 mi
7:30 PM86 °FPassing clouds.6 mph49%29.59 "Hg2 mi
7:00 PM88 °FScattered clouds.8 mph46%29.59 "Hg2 mi
6:30 PM91 °FScattered clouds.12 mph46%29.56 "Hg2 mi
6:00 PM93 °FBroken clouds.16 mph59%29.59 "Hg2 mi
5:30 PM99 °FScattered clouds.17 mph42%29.50 "Hg2 mi
5:00 PM100 °FHaze.17 mph40%29.50 "Hg2 mi
4:30 PM102 °FHaze.14 mph37%29.50 "Hg2 mi
4:00 PM104 °FHaze.13 mph35%29.53 "Hg2 mi
3:30 PM104 °FHaze.13 mph35%29.53 "Hg2 mi
3:00 PM106 °FHaze.12 mph36%29.53 "Hg2 mi
2:30 PM106 °FHaze.10 mph36%29.56 "Hg2 mi
2:00 PM106 °FHaze.9 mph36%29.59 "Hg2 mi
1:00 PM102 °FHaze.9 mph40%29.62 "Hg2 mi
12:30 PM102 °FHaze.8 mph37%29.65 "Hg2 mi
12:00 PM102 °FHaze.8 mph37%29.65 "Hg2 mi
11:30 AM100 °FHaze.7 mph35%29.68 "Hg2 mi
10:30 AM95 °FHaze.6 mph44%29.68 "Hg2 mi
10:00 AM93 °FHaze.7 mph49%29.68 "Hg2 mi
9:00 AM91 °FHaze.8 mph59%29.71 "Hg2 mi
8:30 AM90 °FScattered clouds.8 mph71%29.68 "Hg2 mi
8:00 AM88 °FScattered clouds.6 mph75%29.68 "Hg2 mi
7:30 AM86 °FScattered clouds.6 mph75%29.68 "Hg2 mi
7:00 AM86 °FScattered clouds.5 mph84%29.65 "Hg2 mi
6:30 AM84 °FScattered clouds.3 mph89%29.65 "Hg2 mi
6:00 AM84 °FThunderstorms. Passing clouds.3 mph89%29.62 "Hg2 mi
5:30 AM88 °FThunderstorms. Partly cloudy.5 mph79%29.62 "Hg2 mi
5:00 AM88 °FThunderstorms. Partly cloudy.3 mph79%29.62 "Hg2 mi
4:00 AM86 °FPartly cloudy.7 mph84%29.59 "Hg2 mi
3:00 AM86 °FPassing clouds.12 mph79%29.59 "Hg2 mi
Weather by CustomWeather, © 2016

See weather overviewHow to use our weather pages